When you browse on this site, cookies collect data to enhance your experience and personalize the content and advertising you see.
Visit our Privacy Policy to learn more. By continuing to use the site, you agree to this use of cookies and data.
  • In Spain
  • List of Countries
  • For 7 days
  • Water Temperature
  • Satellite Maps
  • Weather Map
  • Weather Widgets
  • user-avatar
    Login

    Hourly Weather Uida

    Today, 18 December, Tuesday

    Time Temperature Precipitation Wind Pressure Humidity
    00:00 +29°C° 0 mm 2 mps 758 mmHg 80%
    01:00 +29°C° 0.1 mm 2 mps 757 mmHg 81%
    02:00 +28°C° 0.1 mm 2 mps 757 mmHg 82%
    03:00 +28°C° 0.1 mm 2 mps 757 mmHg 83%
    04:00 +28°C° 0 mm 1 mps 757 mmHg 84%
    05:00 +28°C° 0 mm 1 mps 757 mmHg 85%
    06:00 +27°C° 0 mm 1 mps 757 mmHg 86%
    07:00 +30°C° 0.2 mm 1 mps 758 mmHg 75%
    08:00 +32°C° 0.2 mm 1 mps 758 mmHg 64%
    09:00 +35°C° 0.2 mm 1 mps 758 mmHg 53%
    10:00 +36°C° 0 mm 1 mps 758 mmHg 48%
    11:00 +38°C° 0 mm 2 mps 757 mmHg 43%
    12:00 +39°C° 0 mm 3 mps 757 mmHg 37%
    13:00 +38°C° 0 mm 3 mps 757 mmHg 40%
    14:00 +38°C° 0 mm 4 mps 756 mmHg 43%
    15:00 +37°C° 0 mm 4 mps 756 mmHg 46%
    16:00 +36°C° 0 mm 4 mps 756 mmHg 52%
    17:00 +34°C° 0 mm 4 mps 756 mmHg 58%
    18:00 +32°C° 0 mm 5 mps 756 mmHg 64%
    19:00 +32°C° 0 mm 4 mps 757 mmHg 67%
    20:00 +32°C° 0 mm 4 mps 757 mmHg 71%
    21:00 +30°C° 0 mm 4 mps 758 mmHg 74%
    22:00 +30°C° 0 mm 4 mps 758 mmHg 76%
    23:00 +30°C° 0 mm 4 mps 758 mmHg 77%

    Tomorrow, 19 December, Wednesday

    Time Temperature Precipitation Wind Pressure Humidity
    00:00 +29°C° 0 mm 4 mps 758 mmHg 79%
    01:00 +29°C° 0 mm 3 mps 757 mmHg 81%
    02:00 +29°C° 0 mm 3 mps 757 mmHg 83%
    03:00 +28°C° 0 mm 3 mps 757 mmHg 85%
    04:00 +28°C° 0 mm 3 mps 757 mmHg 86%
    05:00 +28°C° 0 mm 3 mps 757 mmHg 87%
    06:00 +28°C° 0 mm 2 mps 757 mmHg 87%
    07:00 +29°C° 0 mm 2 mps 758 mmHg 79%
    08:00 +31°C° 0 mm 2 mps 758 mmHg 70%
    09:00 +34°C° 0 mm 2 mps 759 mmHg 62%
    10:00 +35°C° 0.3 mm 2 mps 758 mmHg 55%
    11:00 +37°C° 0.3 mm 2 mps 758 mmHg 49%
    12:00 +39°C° 0.3 mm 2 mps 758 mmHg 42%
    13:00 +38°C° 0.1 mm 3 mps 757 mmHg 44%
    14:00 +37°C° 0.1 mm 3 mps 756 mmHg 46%
    15:00 +37°C° 0.1 mm 4 mps 756 mmHg 47%
    16:00 +35°C° 0 mm 4 mps 756 mmHg 54%
    17:00 +33°C° 0 mm 4 mps 756 mmHg 61%
    18:00 +32°C° 0 mm 5 mps 756 mmHg 68%
    19:00 +32°C° 0 mm 4 mps 757 mmHg 70%
    20:00 +30°C° 0 mm 4 mps 757 mmHg 73%
    21:00 +30°C° 0 mm 4 mps 758 mmHg 76%
    22:00 +30°C° 0 mm 4 mps 758 mmHg 77%
    23:00 +29°C° 0 mm 4 mps 758 mmHg 79%

    Day after tomorrow, 20 December, Thursday

    Time Temperature Precipitation Wind Pressure Humidity
    00:00 +29°C° 0 mm 4 mps 758 mmHg 81%
    01:00 +29°C° 0 mm 4 mps 757 mmHg 82%
    02:00 +29°C° 0 mm 4 mps 757 mmHg 84%
    03:00 +28°C° 0 mm 4 mps 756 mmHg 85%
    04:00 +28°C° 0.1 mm 3 mps 757 mmHg 86%
    05:00 +28°C° 0.1 mm 3 mps 757 mmHg 87%
    06:00 +28°C° 0.1 mm 2 mps 757 mmHg 88%
    07:00 +29°C° 0 mm 3 mps 758 mmHg 80%
    08:00 +31°C° 0 mm 3 mps 758 mmHg 71%
    09:00 +34°C° 0 mm 3 mps 759 mmHg 63%
    10:00 +35°C° 0 mm 3 mps 758 mmHg 56%
    11:00 +37°C° 0 mm 3 mps 758 mmHg 49%
    12:00 +38°C° 0 mm 3 mps 757 mmHg 42%
    13:00 +38°C° 0.1 mm 3 mps 757 mmHg 44%
    14:00 +37°C° 0.1 mm 4 mps 756 mmHg 46%
    15:00 +37°C° 0.1 mm 4 mps 755 mmHg 48%
    16:00 +35°C° 0 mm 4 mps 755 mmHg 56%
    17:00 +34°C° 0 mm 4 mps 756 mmHg 64%
    18:00 +32°C° 0 mm 5 mps 756 mmHg 72%
    19:00 +32°C° 0 mm 4 mps 756 mmHg 74%
    20:00 +30°C° 0 mm 4 mps 757 mmHg 76%
    21:00 +30°C° 0 mm 4 mps 758 mmHg 79%
    22:00 +30°C° 0 mm 4 mps 757 mmHg 80%
    23:00 +29°C° 0 mm 4 mps 757 mmHg 82%

    21 December, Friday

    Time Temperature Precipitation Wind Pressure Humidity
    00:00 +29°C° 0 mm 4 mps 757 mmHg 83%
    01:00 +29°C° 0.2 mm 3 mps 757 mmHg 85%
    02:00 +28°C° 0.2 mm 3 mps 756 mmHg 86%
    03:00 +28°C° 0.2 mm 3 mps 756 mmHg 88%
    04:00 +28°C° 0 mm 3 mps 756 mmHg 88%
    05:00 +28°C° 0 mm 3 mps 757 mmHg 89%
    06:00 +28°C° 0 mm 3 mps 757 mmHg 90%
    07:00 +29°C° 0 mm 3 mps 757 mmHg 82%
    08:00 +31°C° 0 mm 3 mps 758 mmHg 73%
    09:00 +33°C° 0 mm 3 mps 758 mmHg 65%
    10:00 +35°C° 0.1 mm 3 mps 758 mmHg 59%
    11:00 +36°C° 0.1 mm 3 mps 757 mmHg 52%
    12:00 +38°C° 0.1 mm 3 mps 757 mmHg 45%
    13:00 +37°C° 0.2 mm 3 mps 756 mmHg 47%
    14:00 +37°C° 0.2 mm 4 mps 756 mmHg 49%
    15:00 +36°C° 0.2 mm 4 mps 755 mmHg 51%
    16:00 +34°C° 0.5 mm 4 mps 755 mmHg 58%
    17:00 +33°C° 0.5 mm 4 mps 755 mmHg 65%
    18:00 +30°C° 0.5 mm 4 mps 755 mmHg 72%
    19:00 +30°C° 0 mm 4 mps 756 mmHg 74%
    20:00 +30°C° 0 mm 4 mps 757 mmHg 76%
    21:00 +29°C° 0 mm 4 mps 757 mmHg 78%
    22:00 +29°C° 0 mm 4 mps 757 mmHg 79%
    23:00 +29°C° 0 mm 4 mps 757 mmHg 80%

    22 December, Saturday

    Time Temperature Precipitation Wind Pressure Humidity
    00:00 +29°C° 0 mm 4 mps 756 mmHg 81%
    01:00 +29°C° 0.2 mm 3 mps 756 mmHg 82%
    02:00 +28°C° 0.2 mm 3 mps 756 mmHg 83%
    03:00 +28°C° 0.2 mm 2 mps 755 mmHg 84%
    04:00 +28°C° 0.1 mm 2 mps 756 mmHg 85%
    05:00 +28°C° 0.1 mm 2 mps 756 mmHg 86%
    06:00 +27°C° 0.1 mm 2 mps 756 mmHg 87%
    07:00 +29°C° 0.1 mm 2 mps 757 mmHg 79%
    08:00 +31°C° 0.1 mm 2 mps 757 mmHg 71%
    09:00 +33°C° 0.1 mm 3 mps 758 mmHg 63%
    10:00 +34°C° 0.2 mm 3 mps 757 mmHg 57%
    11:00 +36°C° 0.2 mm 3 mps 757 mmHg 51%
    12:00 +37°C° 0.2 mm 3 mps 756 mmHg 45%
    13:00 +36°C° 0.1 mm 3 mps 755 mmHg 47%
    14:00 +36°C° 0.1 mm 4 mps 755 mmHg 49%
    15:00 +35°C° 0.1 mm 4 mps 754 mmHg 51%
    16:00 +34°C° 0.4 mm 4 mps 754 mmHg 56%
    17:00 +33°C° 0.4 mm 5 mps 755 mmHg 61%
    18:00 +30°C° 0.4 mm 5 mps 755 mmHg 66%
    19:00 +30°C° 0 mm 5 mps 755 mmHg 69%
    20:00 +30°C° 0 mm 4 mps 756 mmHg 71%
    21:00 +29°C° 0 mm 4 mps 756 mmHg 74%
    22:00 +29°C° 0 mm 4 mps 756 mmHg 76%
    23:00 +29°C° 0 mm 3 mps 756 mmHg 77%

    23 December, Sunday

    Time Temperature Precipitation Wind Pressure Humidity
    00:00 +29°C° 0 mm 3 mps 756 mmHg 79%
    01:00 +28°C° 0.2 mm 3 mps 755 mmHg 81%
    02:00 +28°C° 0.2 mm 3 mps 755 mmHg 82%
    03:00 +28°C° 0.2 mm 2 mps 755 mmHg 84%
    04:00 +28°C° 0.6 mm 2 mps 755 mmHg 84%
    05:00 +27°C° 0.6 mm 2 mps 755 mmHg 84%
    06:00 +27°C° 0.6 mm 2 mps 756 mmHg 85%
    07:00 +29°C° 0.1 mm 3 mps 756 mmHg 75%
    08:00 +31°C° 0.1 mm 3 mps 757 mmHg 66%
    09:00 +33°C° 0.1 mm 3 mps 757 mmHg 57%
    10:00 +35°C° 0 mm 3 mps 757 mmHg 51%
    11:00 +37°C° 0 mm 3 mps 756 mmHg 44%
    12:00 +38°C° 0 mm 3 mps 756 mmHg 37%
    13:00 +37°C° 0.2 mm 3 mps 755 mmHg 40%
    14:00 +36°C° 0.2 mm 4 mps 755 mmHg 44%
    15:00 +36°C° 0.2 mm 4 mps 754 mmHg 47%
    16:00 +34°C° 0 mm 4 mps 754 mmHg 52%
    17:00 +33°C° 0 mm 4 mps 755 mmHg 58%
    18:00 +32°C° 0 mm 4 mps 755 mmHg 63%
    19:00 +30°C° 0 mm 3 mps 755 mmHg 65%
    20:00 +30°C° 0 mm 3 mps 756 mmHg 67%
    21:00 +30°C° 0 mm 3 mps 756 mmHg 69%
    22:00 +29°C° 0 mm 3 mps 756 mmHg 70%
    23:00 +29°C° 0 mm 4 mps 756 mmHg 72%
    Show more